FW0286 Weather Reports


Display with metric or nautical units.
time (UTC)temp
F
wind
direction
speed
MPH
gust
MPH
rain 1hr
in
rain 24hr
in
rain mn
in
humidity
%
barometer
mb
20260505085930 56 11 0.0 0.0 0.00 0.00 0.00 85 1015.8
20260505085422 56 11 0.0 0.0 0.00 0.00 0.00 85 1015.8
20260505084919 56 12 0.0 0.0 0.00 0.00 0.00 86 1015.7
20260505084416 56 12 0.0 0.0 0.00 0.00 0.00 84 1015.7
20260505083918 56 11 0.0 0.0 0.00 0.00 0.00 84 1015.7
20260505083414 56 11 0.0 0.0 0.00 0.00 0.00 85 1015.6
20260505082918 56 11 0.0 0.0 0.00 0.00 0.00 84 1015.4
20260505082912 56 11 0.0 0.0 0.00 0.00 0.00 84 1015.5
20260505081906 56 12 0.0 0.0 0.00 0.00 0.00 84 1015.5
20260505081406 56 12 0.0 0.0 0.00 0.00 0.00 85 1015.4
20260505081348 56 12 0.0 0.0 0.00 0.00 0.00 83 1015.4
20260505080832 56 12 0.0 0.0 0.00 0.00 0.00 82 1015.3
20260505080437 56 12 0.0 0.0 0.00 0.00 0.00 83 1015.4
20260505075818 57 12 0.0 0.0 0.00 0.00 0.00 81 1015.3
20260505074806 57 12 0.0 0.0 0.00 0.00 0.00 81 1015.3
20260505074253 57 12 0.0 0.0 0.00 0.00 0.00 81 1015.2
20260505073753 57 12 0.0 0.0 0.00 0.00 0.00 80 1015.2
20260505073254 57 12 0.0 0.0 0.00 0.00 0.00 80 1015.1
20260505072754 57 12 0.0 0.0 0.00 0.00 0.00 80 1015.1
20260505072247 57 12 0.0 0.0 0.00 0.00 0.00 80 1015.0
20260505071734 57 12 0.0 0.0 0.00 0.00 0.00 80 1015.0
20260505071232 57 12 0.0 0.0 0.00 0.00 0.00 80 1014.9
20260505070712 57 11 0.0 0.0 0.00 0.00 0.00 80 1015.0
20260505070207 57 11 0.0 0.0 0.00 0.00 0.00 80 1015.1
20260505065656 57 12 0.0 0.0 0.00 0.00 0.00 80 1015.0
20260505065152 57 12 0.0 0.0 0.00 0.00 0.00 79 1015.1
20260505065142 57 12 0.0 0.0 0.00 0.00 0.00 79 1015.2
20260505064635 57 12 0.0 0.0 0.00 0.00 0.00 79 1015.1
20260505063622 58 12 0.0 0.0 0.00 0.00 0.00 79 1015.1
20260505063113 58 12 0.0 0.0 0.00 0.00 0.00 79 1015.1
20260505062605 58 11 0.0 0.0 0.00 0.00 0.00 78 1015.2
20260505062103 58 12 0.0 0.0 0.00 0.00 0.00 78 1015.3
20260505062047 58 11 0.0 0.0 0.00 0.00 0.00 77 1015.3
20260505061541 58 12 0.0 0.0 0.00 0.00 0.00 77 1015.3
20260505060940 58 12 0.0 0.0 0.00 0.00 0.00 76 1015.4
20260505060544 58 12 0.0 0.0 0.00 0.00 0.00 77 1015.4
20260505055902 59 12 0.0 0.0 0.00 0.00 0.00 76 1015.4
20260505054853 59 12 0.0 0.0 0.00 0.00 0.00 75 1015.5
20260505054353 59 12 0.0 0.0 0.00 0.00 0.00 74 1015.5
20260505053848 59 12 0.0 0.0 0.00 0.00 0.00 74 1015.6
20260505053334 60 12 0.0 0.0 0.00 0.00 0.00 74 1015.6
20260505052822 60 12 0.0 0.0 0.00 0.00 0.00 74 1015.7
20260505052319 60 11 0.0 0.0 0.00 0.00 0.00 73 1015.7
20260505051758 60 12 0.0 0.0 0.00 0.00 0.00 73 1015.8
20260505051720 61 12 0.0 0.0 0.00 0.00 0.00 70 1015.8
20260505051324 60 12 0.0 0.0 0.00 0.00 0.00 73 1015.8
20260505050825 61 12 0.0 0.0 0.00 0.00 0.00 72 1015.8
20260505050322 61 12 0.0 0.0 0.00 0.00 0.00 71 1015.8
20260505041523 62 12 0.0 0.0 0.00 0.00 0.00 70 1015.9
20260505041010 61 12 0.0 0.0 0.00 0.00 0.00 71 1015.9
20260505040502 62 11 0.0 0.0 0.00 0.00 0.00 70 1015.9
20260505035955 62 11 0.0 0.0 0.00 0.00 0.00 69 1015.9
20260505035455 62 12 0.0 0.0 0.00 0.00 0.00 68 1015.9
20260505035002 63 11 0.0 0.0 0.00 0.00 0.00 67 1016.1
20260505034939 62 12 0.0 0.0 0.00 0.00 0.00 67 1016.0
20260505034856 63 11 0.0 0.0 0.00 0.00 0.00 66 1016.1
20260505034001 63 12 0.0 0.0 0.00 0.00 0.00 68 1016.0
20260505032855 63 11 0.0 0.0 0.00 0.00 0.00 67 1016.1
20260505032355 63 11 0.0 0.0 0.00 0.00 0.00 66 1016.2
20260505032351 63 11 0.0 0.0 0.00 0.00 0.00 66 1016.0
20260505031351 63 11 0.0 0.0 0.00 0.00 0.00 65 1016.2
20260505030851 63 11 0.0 0.0 0.00 0.00 0.00 65 1016.1
20260505030335 64 11 0.0 0.0 0.00 0.00 0.00 64 1016.3
20260505025817 64 11 0.0 0.0 0.00 0.00 0.00 64 1016.3
20260505025319 64 11 0.0 0.0 0.00 0.00 0.00 63 1016.3
20260505024817 64 12 0.0 0.0 0.00 0.00 0.00 62 1016.3
20260505024303 64 11 0.0 0.0 0.00 0.00 0.00 62 1016.2
20260505023755 65 11 0.0 0.0 0.00 0.00 0.00 60 1016.2
20260505023250 65 11 0.0 0.0 0.00 0.00 0.00 60 1016.2
20260505022748 65 12 0.0 0.0 0.00 0.00 0.00 59 1016.1
20260505022247 65 11 0.0 0.0 0.00 0.00 0.00 59 1016.0
20260505021739 66 11 0.0 0.0 0.00 0.00 0.00 59 1015.9
20260505021718 66 11 0.0 0.0 0.00 0.00 0.00 58 1015.9
20260505021156 66 11 0.0 0.0 0.00 0.00 0.00 59 1015.8
20260505020154 66 11 0.0 0.0 0.00 0.00 0.00 57 1015.6
20260505020148 64 12 0.0 0.0 0.00 0.00 0.00 58 1015.5
20260505015643 65 12 0.0 0.0 0.00 0.00 0.00 59 1015.6
20260505014639 63 12 0.0 0.0 0.00 0.00 0.00 64 1015.4
20260505014622 64 12 0.0 0.0 0.00 0.00 0.00 54 1015.2
20260505014226 64 12 0.0 0.0 0.00 0.00 0.00 55 1015.3
20260505013111 64 12 0.0 0.0 0.00 0.00 0.00 54 1015.2
20260505012535 65 12 0.0 0.0 0.00 0.00 0.00 53 1015.2
20260505012019 65 12 0.0 0.0 0.00 0.00 0.00 53 1015.1
20260505011511 65 12 0.0 0.0 0.00 0.00 0.00 52 1015.0
20260505011011 66 13 0.0 0.0 0.00 0.00 0.00 51 1015.1
20260505010455 66 12 0.0 0.0 0.00 0.00 0.00 51 1015.0
20260505005952 67 12 0.0 0.0 0.00 0.00 0.00 51 1015.0
20260505005447 67 12 0.0 0.0 0.00 0.00 0.00 51 1014.9
20260505004935 68 12 0.0 0.0 0.00 0.00 0.00 51 1014.8
20260505004436 69 12 0.0 0.0 0.00 0.00 0.00 49 1014.7
20260505004432 68 12 0.0 0.0 0.00 0.00 0.00 50 1014.8
20260505003416 69 12 0.0 0.0 0.00 0.00 0.00 50 1014.7
20260505003404 70 12 0.0 0.0 0.00 0.00 0.00 49 1014.6
20260505002855 71 12 0.0 0.0 0.00 0.00 0.00 47 1014.6
20260505002502 71 12 0.0 0.0 0.00 0.00 0.00 46 1014.6
20260505001354 72 12 0.0 0.0 0.00 0.00 0.00 45 1014.6
20260505000855 72 12 0.0 0.0 0.00 0.00 0.00 43 1014.6
20260505000850 73 12 0.0 0.0 0.00 0.00 0.00 42 1014.4
20260504235845 73 12 0.0 0.0 0.00 0.00 0.00 43 1014.3
20260504235339 74 12 0.0 0.0 0.00 0.00 0.00 42 1014.4
20260504234826 74 12 0.0 0.0 0.00 0.00 0.00 42 1014.4
20260504234317 75 12 0.0 0.0 0.00 0.00 0.00 40 1014.3
20260504233809 75 11 0.0 0.0 0.00 0.00 0.00 40 1014.3
20260504233311 76 12 0.0 0.0 0.00 0.00 0.00 39 1014.2
20260504232757 76 12 0.0 0.0 0.00 0.00 0.00 37 1014.0
20260504232752 76 12 0.0 0.0 0.00 0.00 0.00 38 1014.2
20260504232402 76 13 0.0 0.0 0.00 0.00 0.00 38 1014.2
20260504231251 77 12 0.0 0.0 0.00 0.00 0.00 38 1014.1
20260504230751 77 12 0.0 0.0 0.00 0.00 0.00 35 1014.1
20260504230243 77 11 0.0 0.0 0.00 0.00 0.00 34 1014.1
20260504225739 77 11 0.0 0.0 0.00 0.00 0.00 35 1014.1
20260504225223 78 11 0.0 0.0 0.00 0.00 0.00 33 1014.1
20260504224717 78 12 0.0 0.0 0.00 0.00 0.00 34 1014.2
20260504224203 78 11 0.0 0.0 0.00 0.00 0.00 34 1014.2
20260504223704 78 11 0.0 0.0 0.00 0.00 0.00 31 1014.2
20260504223152 79 12 0.0 0.0 0.00 0.00 0.00 31 1014.2
20260504222650 79 11 0.0 0.0 0.00 0.00 0.00 29 1014.1
20260504222139 80 11 0.0 0.0 0.00 0.00 0.00 30 1014.2
20260504221637 79 12 0.0 0.0 0.00 0.00 0.00 31 1014.2
20260504221142 80 11 0.0 0.0 0.00 0.00 0.00 29 1014.3
20260504220629 80 11 0.0 0.0 0.00 0.00 0.00 28 1014.2
20260504220116 81 11 0.0 0.0 0.00 0.00 0.00 30 1014.2
20260504215611 82 11 0.0 0.0 0.00 0.00 0.00 28 1014.1
20260504215047 82 11 0.0 0.0 0.00 0.00 0.00 27 1014.1
20260504214541 83 13 0.0 0.0 0.00 0.00 0.00 28 1014.1
20260504214531 82 11 0.0 0.0 0.00 0.00 0.00 27 1014.1
20260504213522 82 11 0.0 0.0 0.00 0.00 0.00 28 1014.1
20260504213014 82 11 0.0 0.0 0.00 0.00 0.00 27 1014.1
20260504212514 83 11 0.0 0.0 0.00 0.00 0.00 31 1014.1
20260504212013 83 12 0.0 0.0 0.00 0.00 0.00 28 1014.2
20260504211515 83 12 0.0 0.0 0.00 0.00 0.00 27 1014.1
20260504211002 83 11 0.0 0.0 0.00 0.00 0.00 26 1014.2
20260504210503 83 11 0.0 0.0 0.00 0.00 0.00 26 1014.2
20260504205943 82 11 0.0 0.0 0.00 0.00 0.00 25 1014.2
20260504205439 82 11 0.0 0.0 0.00 0.00 0.00 25 1014.2
20260504205434 81 11 0.0 0.0 0.00 0.00 0.00 26 1014.3
20260504204424 81 12 0.0 0.0 0.00 0.00 0.00 25 1014.4
20260504203917 82 11 0.0 0.0 0.00 0.00 0.00 27 1014.5
20260504203409 82 12 0.0 0.0 0.00 0.00 0.00 25 1014.5
20260504203352 82 11 0.0 0.0 0.00 0.00 0.00 24 1014.6
20260504203002 81 11 0.0 0.0 0.00 0.00 0.00 23 1014.7
20260504201845 81 11 0.0 0.0 0.00 0.00 0.00 24 1014.8
20260504201338 81 11 0.0 0.0 0.00 0.00 0.00 24 1014.8
20260504200831 82 11 0.0 0.0 0.00 0.00 0.00 23 1015.0
20260504200825 83 11 0.0 0.0 0.00 0.00 0.00 23 1015.0
20260504200302 82 12 0.0 0.0 0.00 0.00 0.00 24 1015.2
20260504195757 82 11 0.0 0.0 0.00 0.00 0.00 23 1015.1
20260504195255 82 12 0.0 0.0 0.00 0.00 0.00 23 1015.1
20260504194251 81 11 0.0 0.0 0.00 0.00 0.00 24 1015.3
20260504193745 81 12 0.0 0.0 0.00 0.00 0.00 27 1015.3
20260504193236 81 11 0.0 0.0 0.00 0.00 0.00 26 1015.4
20260504192735 81 12 0.0 0.0 0.00 0.00 0.00 26 1015.4
20260504192225 81 11 0.0 0.0 0.00 0.00 0.00 29 1015.3
20260504191717 82 11 0.0 0.0 0.00 0.00 0.00 29 1015.4
20260504191216 81 11 0.0 0.0 0.00 0.00 0.00 28 1015.4
20260504190646 82 12 0.0 0.0 0.00 0.00 0.00 28 1015.4
20260504190143 82 12 0.0 0.0 0.00 0.00 0.00 27 1015.5
20260504185645 82 12 0.0 0.0 0.00 0.00 0.00 28 1015.6
20260504185638 81 12 0.0 0.0 0.00 0.00 0.00 27 1015.5
20260504184629 81 11 0.0 0.0 0.00 0.00 0.00 27 1015.7
20260504184128 80 11 0.0 0.0 0.00 0.00 0.00 26 1015.6
20260504183618 81 11 0.0 0.0 0.00 0.00 0.00 28 1015.8
20260504183116 82 11 0.0 0.0 0.00 0.00 0.00 29 1015.8
20260504182611 81 13 0.0 0.0 0.00 0.00 0.00 28 1015.9
20260504182110 81 12 0.0 0.0 0.00 0.00 0.00 27 1015.9
20260504181606 80 12 0.0 0.0 0.00 0.00 0.00 30 1015.9
20260504181057 80 12 0.0 2.0 0.00 0.00 0.00 29 1015.9
20260504180553 80 11 0.0 2.0 0.00 0.00 0.00 28 1016.1
20260504180050 81 11 0.0 0.0 0.00 0.00 0.00 28 1016.1
20260504175551 81 12 0.0 0.0 0.00 0.00 0.00 27 1016.2
20260504175047 81 12 0.0 0.0 0.00 0.00 0.00 29 1016.3
20260504174547 80 12 0.0 0.0 0.00 0.00 0.00 26 1016.2
20260504174046 80 12 0.0 0.0 0.00 0.00 0.00 31 1016.3
20260504173549 80 11 0.0 0.0 0.00 0.00 0.00 26 1016.3
20260504173047 79 11 0.0 2.0 0.00 0.00 0.00 27 1016.4
20260504172535 79 11 0.0 2.0 0.00 0.00 0.00 25 1016.5
20260504172034 80 12 0.0 0.0 0.00 0.00 0.00 27 1016.4
20260504172028 80 13 0.0 0.0 0.00 0.00 0.00 30 1016.6
20260504171027 80 11 0.0 0.0 0.00 0.00 0.00 27 1016.5
20260504170532 80 13 0.0 0.0 0.00 0.00 0.00 28 1016.7
20260504170526 80 12 0.0 0.0 0.00 0.00 0.00 27 1016.7
20260504160356 76 12 0.0 0.0 0.00 0.00 0.00 37 1017.5
20260504150753 72 11 0.0 1.0 0.00 0.00 0.00 41 1017.6
20260504150254 72 11 0.0 0.0 0.00 0.00 0.00 40 1017.6
20260504141153 68 11 0.0 0.0 0.00 0.00 0.00 66 1017.9
20260504140654 68 12 0.0 0.0 0.00 0.00 0.00 67 1017.8
20260504140649 68 12 0.0 0.0 0.00 0.00 0.00 61 1017.6
20260504140253 68 12 0.0 0.0 0.00 0.00 0.00 63 1017.7
20260504130632 65 11 0.0 0.0 0.00 0.00 0.00 65 1017.5
20260504130121 66 11 0.0 0.0 0.00 0.00 0.00 64 1017.6
20260504110656 52 11 0.0 0.0 0.00 0.00 0.00 90 1017.4
20260504100543 51 11 0.0 0.0 0.00 0.00 0.00 87 1017.2